{"data":{"norad_id":67237,"intl_designator":"2025-311B","name":"HULIANWANG DIGUI-129","alt_names":[],"object_type":"PAYLOAD","status":"ACTIVE","operator":null,"country":"PRC","launch_date":"2025-12-25","launch_site_code":"WSC","launch_vehicle":null,"mission":null,"orbit_class":"UNKNOWN","rcs_meters":null,"size_class":null,"mass_kg":null,"dimensions":null,"purposes":[],"wikipedia_slug":null,"has_3d_model":false,"image_url":null,"decayed_at":null,"tle_current":{"epoch":"2026-09-20T21:34:00.387840Z","epoch_age_seconds":68621,"freshness":"FRESH","line1":"1 67237U 25311B   26263.89861560 -.00000103  00000+0  45547-4 0  9992","line2":"2 67237  50.0060 132.3581 0000196   3.7277 356.3596 13.29328618 36079","mean_motion":13.29328618,"eccentricity":1.96e-5,"inclination_deg":50.006,"raan_deg":132.3581,"arg_perigee_deg":3.7277,"mean_anomaly_deg":356.3596,"bstar":4.5547e-5,"rev_number":3607,"period_min":108.32535917014,"perigee_km":1149.1491510423,"apogee_km":1149.4442264429,"semimajor_km":7527.4336887426,"source":"CELESTRAK","updated_at":"2026-09-21T09:00:16.508089Z"}}}